[[{"header":{"parameterUnit":"m.s-1","parameterCategory":1,"la1":30.2991,"la2":30.254,"lo1":-89.0895,"lo2":-89.0444,"dy":0.0017,"dx":0.0017,"nx":28,"ny":28,"refTime":"2024-08-26T03:00:00:Z","depth":0,"parameterNumber":2,"parameterNumberName":"U-component_of_WINDS"},"data":[0,0,0,0,0,0,0,0,0,0,0,0,0,0,0,0,0,0,0,0,0,0,0,0,0,0,0,0,0,0,0,0,0,0,0,0,0,0,0,0,0,0,0,0,0,0,0,0,0,0,0,0,0,0,0,0,0,0,-1.2271,-1.227,0,-1.2222,-1.2222,-1.2221,-1.2183,-1.2183,-1.2183,-1.2182,-1.2131,-1.213,-1.2129,0,0,0,0,0,0,0,0,0,0,0,0,0,-1.2333,-1.2332,-1.2271,-1.227,-1.227,-1.2222,-1.2222,-1.2221,-1.2183,-1.2183,-1.2183,-1.2182,-1.2132,-1.213,-1.2129,0,0,0,0,0,0,0,0,0,0,0,0,0,-1.2297,-1.2332,-1.2271,-1.2245,-1.2243,-1.2222,-1.2221,-1.2221,-1.2184,-1.2183,-1.2182,-1.2182,-1.2132,-1.213,-1.2129,-1.213,0,0,-1.2124,-1.2123,0,0,0,0,0,0,0,0,-1.23,-1.2295,-1.225,-1.2247,-1.2244,-1.2208,-1.2225,-1.219,-1.2184,-1.2206,-1.2182,-1.2182,-1.2157,-1.2154,-1.2145,-1.2127,-1.2125,-1.2124,-1.2123,-1.2122,-1.2122,0,0,0,0,0,0,0,-1.2302,-1.2297,-1.2252,-1.2249,-1.2246,-1.2237,-1.2231,-1.2218,-1.2185,-1.2204,-1.2201,-1.2196,-1.2155,-1.2147,-1.2144,-1.2124,-1.2124,-1.2123,-1.2122,-1.2121,-1.2109,-1.2109,0,0,0,0,0,0,-1.2308,-1.2299,-1.2253,-1.225,-1.2271,-1.2236,-1.223,-1.222,-1.2185,-1.2179,-1.2196,-1.2194,-1.215,-1.2146,-1.2142,-1.2143,-1.2122,-1.2121,-1.212,-1.2108,-1.2109,-1.2109,0,0,0,0,0,0,-1.231,-1.2305,-1.2255,-1.2274,-1.2267,-1.2236,-1.2225,-1.222,-1.2211,-1.2179,-1.2173,-1.2194,-1.2149,-1.2144,-1.2134,-1.2141,-1.212,-1.2119,-1.2107,-1.2108,-1.2109,-1.2144,0,0,0,0,0,0,-1.2312,-1.2305,-1.2305,-1.2274,-1.2266,-1.2247,-1.2226,-1.2219,-1.2209,-1.2205,-1.2175,-1.217,-1.2149,-1.2137,-1.2133,-1.2138,-1.2118,-1.2107,-1.2108,-1.2109,-1.2142,-1.2146,-1.2149,0,0,0,0,0,-1.2314,-1.2315,-1.2305,-1.23,-1.2265,-1.2248,-1.2243,-1.2219,-1.2209,-1.2209,-1.2189,-1.2171,-1.2141,-1.2136,-1.2131,-1.2136,-1.2106,-1.2107,-1.2109,-1.214,-1.2145,-1.2149,0,0,0,0,0,0,-1.2346,-1.2311,-1.2299,-1.229,-1.2273,-1.2241,-1.224,-1.2224,-1.2208,-1.2206,-1.2177,-1.217,-1.2164,-1.2149,-1.2144,-1.2137,-1.2121,-1.2122,-1.2147,-1.2151,-1.2155,-1.2158,-1.2116,0,0,0,0,0,-1.2352,-1.2341,-1.2311,-1.2307,-1.2299,-1.2271,-1.2263,-1.2246,-1.2226,-1.2219,-1.2198,-1.2179,-1.2166,-1.2158,-1.2144,-1.214,-1.2134,-1.2141,-1.2145,-1.2148,-1.2149,-1.2149,-1.2152,-1.2114,-1.2114,-1.2114,0,0,-1.2364,-1.2344,-1.2338,-1.2313,-1.2297,-1.2287,-1.2265,-1.2254,-1.2247,-1.2217,-1.2206,-1.2191,-1.2169,-1.2163,-1.2159,-1.215,-1.2159,-1.215,-1.2153,-1.2151,-1.215,-1.2154,-1.2157,-1.2115,-1.2115,-1.2114,0,0,-1.2382,-1.2365,-1.236,-1.2346,-1.2323,-1.2306,-1.2305,-1.2277,-1.2266,-1.2256,-1.2234,-1.2225,-1.2202,-1.2188,-1.2178,-1.2195,-1.2178,-1.2191,-1.221,-1.221,-1.2213,-1.2216,-1.2223,-1.2226,-1.2192,-1.2192,-1.2192,0,-1.2399,-1.2384,-1.236,-1.2352,-1.2342,-1.2316,-1.2312,-1.2299,-1.2273,-1.2267,-1.2258,-1.2231,-1.2214,-1.2206,-1.2211,-1.2203,-1.2202,-1.2194,-1.2215,-1.2217,-1.2219,-1.2226,-1.2229,-1.2194,-1.2194,-1.2194,-1.2194,0,-1.2408,-1.2398,-1.2397,-1.2374,-1.2364,-1.2358,-1.2334,-1.2328,-1.2313,-1.2297,-1.2289,-1.2268,-1.2251,-1.2248,-1.2232,-1.2238,-1.2234,-1.222,-1.2203,-1.2225,-1.2231,-1.2234,-1.2197,-1.2196,-1.2196,-1.2195,0,0,-1.2441,-1.2408,-1.2408,-1.2399,-1.2374,-1.2366,-1.236,-1.2344,-1.234,-1.2324,-1.2319,-1.2303,-1.2291,-1.228,-1.2263,-1.2263,-1.2281,-1.225,-1.2249,-1.2258,-1.2289,-1.23,-1.2303,-1.227,-1.2271,-1.2271,-1.2292,0,-1.2455,-1.2443,-1.2423,-1.2418,-1.241,-1.2387,-1.2383,-1.2368,-1.2354,-1.2345,-1.2329,-1.2319,-1.2303,-1.2297,-1.2296,-1.2279,-1.2287,-1.2277,-1.2267,-1.2267,-1.2273,-1.2306,-1.2317,-1.2337,-1.2294,-1.2294,-1.2294,0,-1.2469,-1.2456,-1.2451,-1.243,-1.2426,-1.2422,-1.2408,-1.2399,-1.2383,-1.2373,-1.2363,-1.2346,-1.234,-1.2326,-1.2319,-1.2313,-1.2308,-1.2299,-1.23,-1.2297,-1.2282,-1.2306,-1.2342,-1.2346,-1.2298,-1.2297,-1.2297,0,-1.2495,-1.2477,-1.2472,-1.2465,-1.244,-1.2438,-1.2428,-1.2411,-1.2404,-1.2392,-1.2387,-1.2374,-1.2368,-1.2359,-1.2339,-1.233,-1.2336,-1.2319,-1.2328,-1.2329,-1.2329,-1.2329,-1.2366,-1.2326,-1.2325,-1.2325,-1.2325,0,-1.2513,-1.2511,-1.2484,-1.2481,-1.2479,-1.2458,-1.2456,-1.2444,-1.243,-1.2425,-1.2405,-1.2401,-1.2375,-1.2369,-1.2354,-1.2352,-1.2348,-1.2341,-1.2337,-1.2343,-1.2344,-1.2339,-1.2337,-1.2326,-1.2326,-1.2326,-1.2326,0,-1.2541,-1.2523,-1.2517,-1.2495,-1.249,-1.249,-1.2471,-1.2468,-1.2455,-1.2449,-1.2447,-1.2425,-1.2417,-1.2397,-1.2383,-1.2373,-1.2376,-1.2368,-1.2381,-1.2379,-1.239,-1.239,-1.2425,-1.2429,-1.2385,-1.2386,-1.2386,0,-1.2554,-1.2552,-1.2531,-1.2527,-1.2518,-1.2511,-1.2505,-1.2485,-1.2479,-1.2463,-1.2463,-1.2453,-1.2445,-1.2433,-1.2416,-1.2407,-1.2399,-1.2412,-1.2397,-1.2405,-1.2401,-1.2402,-1.2402,-1.2415,-1.2416,-1.2416,-1.2417,0,-1.2579,-1.2571,-1.2562,-1.2552,-1.2546,-1.2536,-1.2526,-1.2524,-1.2501,-1.2497,-1.2489,-1.2482,-1.247,-1.2462,-1.245,-1.244,-1.2426,-1.2422,-1.2424,-1.243,-1.2438,-1.2436,-1.2391,-1.2421,-1.2421,-1.242,-1.242,-1.242,-1.26,-1.2599,-1.2585,-1.2577,-1.2568,-1.256,-1.2557,-1.2545,-1.2538,-1.2527,-1.2516,-1.251,-1.2497,-1.248,-1.2472,-1.2468,-1.246,-1.2462,-1.2463,-1.2464,-1.2467,-1.2439,-1.2465,-1.2465,-1.2465,-1.2465,-1.2465,0,-1.2625,-1.2616,-1.2609,-1.2597,-1.2592,-1.258,-1.2569,-1.2565,-1.2561,-1.255,-1.2543,-1.2536,-1.2529,-1.2513,-1.2505,-1.2505,-1.2499,-1.2504,-1.2504,-1.2502,-1.2474,-1.2474,-1.251,-1.251,-1.251,-1.251,-1.251,-1.251,-1.2637,-1.2635,-1.2626,-1.2621,-1.2612,-1.2606,-1.2602,-1.2595,-1.2587,-1.258,-1.2575,-1.2565,-1.2553,-1.2545,-1.2539,-1.2534,-1.2533,-1.2541,-1.2534,-1.2508,-1.2504,-1.25,-1.2499,-1.254,-1.254,-1.2563,-1.2563,-1.2564]},{"header":{"parameterUnit":"m.s-1","parameterCategory":1,"la1":30.2991,"la2":30.254,"lo1":-89.0895,"lo2":-89.0444,"dy":0.0017,"dx":0.0017,"nx":28,"ny":28,"refTime":"2024-08-26T03:00:00:Z","depth":0,"parameterNumber":3,"parameterNumberName":"V-component_of_WINDS"},"data":[0,0,0,0,0,0,0,0,0,0,0,0,0,0,0,0,0,0,0,0,0,0,0,0,0,0,0,0,0,0,0,0,0,0,0,0,0,0,0,0,0,0,0,0,0,0,0,0,0,0,0,0,0,0,0,0,0,0,3.4384,3.4384,0,3.4413,3.4414,3.4414,3.4448,3.4449,3.4449,3.445,3.4477,3.4477,3.4477,0,0,0,0,0,0,0,0,0,0,0,0,0,3.4355,3.4355,3.4384,3.4384,3.4385,3.4413,3.4414,3.4414,3.4448,3.4449,3.4449,3.445,3.4477,3.4477,3.4477,0,0,0,0,0,0,0,0,0,0,0,0,0,3.4374,3.4356,3.4384,3.4405,3.4407,3.4413,3.4414,3.4414,3.4448,3.4449,3.4449,3.445,3.4477,3.4477,3.4477,3.4464,0,0,3.4478,3.4479,0,0,0,0,0,0,0,0,3.4373,3.4375,3.4402,3.4404,3.4406,3.4428,3.4414,3.4431,3.4448,3.4432,3.445,3.445,3.446,3.4462,3.4465,3.4465,3.4466,3.4478,3.4479,3.4479,3.4479,0,0,0,0,0,0,0,3.4372,3.4374,3.4396,3.4402,3.4405,3.4412,3.4416,3.4417,3.4441,3.4434,3.4436,3.4439,3.4461,3.4465,3.4466,3.4467,3.4478,3.4479,3.4479,3.4479,3.4457,3.4456,0,0,0,0,0,0,3.4368,3.4373,3.4395,3.4396,3.4391,3.4412,3.4416,3.442,3.4441,3.4445,3.4439,3.4441,3.4464,3.4466,3.4467,3.4452,3.4479,3.4479,3.4479,3.4458,3.4457,3.4456,0,0,0,0,0,0,3.4367,3.4369,3.4393,3.4385,3.4389,3.4412,3.4416,3.442,3.4424,3.4445,3.4449,3.4438,3.4464,3.4467,3.4465,3.4454,3.4479,3.448,3.4459,3.4457,3.4456,3.4423,0,0,0,0,0,0,3.4366,3.4369,3.4364,3.4385,3.4389,3.4391,3.4415,3.442,3.4425,3.4428,3.4446,3.4449,3.4465,3.4464,3.4465,3.4455,3.448,3.446,3.4458,3.4457,3.4425,3.4421,3.4417,0,0,0,0,0,3.4365,3.4353,3.4364,3.4366,3.4385,3.439,3.4393,3.4412,3.4424,3.4419,3.4433,3.4449,3.4455,3.4463,3.4465,3.4455,3.446,3.4458,3.4457,3.4427,3.4422,3.4417,0,0,0,0,0,0,3.433,3.4356,3.4368,3.4364,3.4375,3.4396,3.4391,3.4406,3.4413,3.4415,3.4438,3.4442,3.4437,3.4446,3.4454,3.4443,3.446,3.4458,3.4437,3.4432,3.4428,3.4426,3.448,0,0,0,0,0,3.4322,3.4325,3.4348,3.4341,3.4346,3.4367,3.4371,3.4385,3.4397,3.4401,3.4414,3.4425,3.4429,3.4431,3.4436,3.4427,3.4431,3.4421,3.4417,3.4413,3.4411,3.4406,3.4402,3.445,3.445,3.445,0,0,3.4304,3.432,3.432,3.4335,3.4345,3.4347,3.4371,3.4372,3.4374,3.4401,3.44,3.441,3.4423,3.4417,3.4415,3.4424,3.4399,3.4411,3.4408,3.4408,3.4404,3.4399,3.4395,3.4449,3.4449,3.4449,0,0,3.4274,3.4286,3.4282,3.4292,3.4307,3.4322,3.4321,3.434,3.4348,3.4348,3.4368,3.437,3.4377,3.4385,3.439,3.4363,3.4378,3.4365,3.4343,3.4338,3.4334,3.4331,3.4321,3.4317,3.4363,3.4363,3.4363,0,3.4251,3.4255,3.4278,3.4278,3.4283,3.4309,3.4305,3.4313,3.4329,3.4331,3.4342,3.4351,3.4362,3.4358,3.4351,3.4355,3.4354,3.4362,3.4333,3.433,3.4327,3.4318,3.4314,3.4361,3.4361,3.4361,3.4361,0,3.4225,3.4228,3.4223,3.4239,3.4244,3.4241,3.4262,3.4265,3.4278,3.4291,3.429,3.4304,3.4312,3.4312,3.4325,3.431,3.4315,3.4329,3.4347,3.4321,3.4312,3.4309,3.4358,3.4359,3.4359,3.436,0,0,3.4173,3.4202,3.4199,3.4206,3.4226,3.4228,3.4226,3.4235,3.4237,3.4247,3.4245,3.4251,3.4264,3.427,3.4284,3.428,3.4257,3.4294,3.4295,3.4286,3.424,3.4229,3.4224,3.4267,3.4267,3.4266,3.4239,0,3.4146,3.4146,3.4166,3.416,3.4162,3.4187,3.4186,3.4197,3.4209,3.4213,3.4226,3.4229,3.4247,3.425,3.4247,3.426,3.4248,3.4263,3.4265,3.4265,3.426,3.422,3.4208,3.4182,3.4236,3.4235,3.4235,0,3.4113,3.4123,3.4117,3.4136,3.4138,3.4137,3.4147,3.415,3.4163,3.4172,3.4178,3.4195,3.4194,3.4212,3.421,3.422,3.4222,3.4229,3.4228,3.4229,3.4248,3.4218,3.4174,3.4169,3.423,3.423,3.4231,0,3.4075,3.4086,3.4084,3.4089,3.4112,3.411,3.412,3.4134,3.4138,3.4146,3.4149,3.4156,3.416,3.4166,3.4183,3.4195,3.418,3.4199,3.4186,3.4186,3.4181,3.4181,3.4136,3.4184,3.4184,3.4184,3.4184,0,3.4041,3.4037,3.4067,3.4065,3.4061,3.4084,3.4078,3.409,3.4102,3.4103,3.4125,3.4125,3.4149,3.4152,3.4166,3.4162,3.4164,3.417,3.4174,3.4168,3.4167,3.4169,3.4171,3.4183,3.4183,3.4184,3.4184,0,3.3997,3.4017,3.4016,3.4038,3.4044,3.4039,3.4058,3.4057,3.4071,3.4071,3.4073,3.4094,3.4098,3.4117,3.4125,3.4135,3.4126,3.4134,3.4122,3.4124,3.411,3.4111,3.4063,3.4058,3.4111,3.411,3.411,0,3.3974,3.3971,3.3993,3.3996,3.4004,3.4008,3.4012,3.4035,3.4039,3.4053,3.405,3.4057,3.4062,3.4068,3.4083,3.409,3.4097,3.408,3.4098,3.4092,3.4096,3.4095,3.4095,3.4076,3.4075,3.4075,3.4074,0,3.393,3.3941,3.3947,3.3957,3.3962,3.397,3.398,3.398,3.4005,3.4008,3.4013,3.4018,3.4027,3.4032,3.4041,3.405,3.4066,3.4069,3.4066,3.4059,3.4052,3.4055,3.411,3.4069,3.407,3.407,3.4071,3.4071,3.3896,3.3894,3.3909,3.3915,3.3925,3.3934,3.3934,3.3949,3.3953,3.3963,3.3976,3.3979,3.3992,3.4006,3.4013,3.4015,3.4024,3.4021,3.402,3.4018,3.4015,3.4053,3.4017,3.4017,3.4017,3.4018,3.4018,0,3.3853,3.3864,3.3869,3.3883,3.3887,3.3903,3.3915,3.3917,3.392,3.3931,3.3937,3.3942,3.3948,3.3964,3.3971,3.3969,3.3977,3.397,3.397,3.3972,3.4006,3.4008,3.3964,3.3964,3.3964,3.3964,3.3964,3.3964,3.3831,3.3829,3.3841,3.3844,3.3856,3.3859,3.3864,3.3872,3.3881,3.3887,3.3892,3.3903,3.3916,3.3924,3.3929,3.3934,3.3935,3.3926,3.3932,3.3964,3.3969,3.3974,3.3975,3.3926,3.3926,3.3897,3.3897,3.3897]}]]